Regional Weather Roundup
Issued by NWS

Home | Current Version | Previous Version | Text Only | Print | Product List | Glossary Off
Versions: 1 2 3 4 5 6 7 8 9 10 11 12 13 14 15 16 17 18 19 20 21 22 23 24 25 26 27 28 29 30 31 32 33 34 35 36 37 38 39 40 41 42 43 44 45 46 47 48 49 50

000
ASUS43 KBIS 220431
RWRND
NORTH DAKOTA REGIONAL WEATHER ROUNDUP
NATIONAL WEATHER SERVICE EASTERN NORTH DAKOTA/GRAND FORKS ND
1100 PM CDT MON MAY 21 2018

  NOTE: "FAIR" INDICATES FEW OR NO CLOUDS BELOW 12,000 FEET WITH NO
  SIGNIFICANT WEATHER AND/OR OBSTRUCTIONS TO VISIBILITY.

NDZ001>003-009>011-017-220500-
...NORTHWEST NORTH DAKOTA...

CITY           SKY/WX    TMP DP  RH WIND       PRES   REMARKS
WILLISTON      FAIR      54  46  74 CALM      29.86R
MINOT          FAIR      64  48  56 SE8       29.88R
MINOT AFB      FAIR      58  42  57 S8        29.86R
$$

NDZ018>021-031>035-040>046-220500-
...SOUTHWEST NORTH DAKOTA...

CITY           SKY/WX    TMP DP  RH WIND       PRES   REMARKS
BISMARCK       FAIR      60  52  74 CALM      29.93R
DICKINSON      FAIR      55  45  68 S9        29.90R
GARRISON         N/A     57  46  66 SE3       29.90R
HETTINGER      FAIR      57  46  66 SE6       29.94R
$$

NDZ004>008-012>016-024-026-027-054-220500-
...NORTHEAST NORTH DAKOTA...

CITY           SKY/WX    TMP DP  RH WIND       PRES   REMARKS
GRAND FORKS    FAIR      61  52  72 S9        29.93R
GRAND FORKS AF FAIR      61  54  76 S7        29.94R
DEVILS LAKE    FAIR      63  51  65 S6        29.94R
$$

NDZ022-023-025-028>030-036>039-047>053-220500-
...SOUTHEAST NORTH DAKOTA...

CITY           SKY/WX    TMP DP  RH WIND       PRES   REMARKS
JAMESTOWN      FAIR      57  54  89 S7        29.94R
FARGO          FAIR      60  54  80 S8        29.97R
WAHPETON       CLOUDY    59  52  77 SE9       29.99R
$$




USA.gov is the U.S. government's official web portal to all federal, state and local government web resources and services.